Regional Weather Roundup
Issued by NWS

Home | Current Version | Previous Version | Graphics & Text | Print | Product List | Glossary Off
Versions: 1 2 3 4 5 6 7 8 9 10 11 12 13 14 15 16 17 18 19 20 21 22 23 24 25 26 27 28 29 30 31 32 33 34 35 36 37 38 39 40 41 42 43 44 45 46 47 48 49 50

000
ASUS43 KDMX 250401
RWRIA

WEATHER ROUNDUP FOR IOWA
NATIONAL WEATHER SERVICE DES MOINES IA
1000 PM CST FRI FEB 24 2017

NOTE: "FAIR" INDICATES FEW OR NO CLOUDS BELOW 12,000 FEET WITH NO
SIGNIFICANT WEATHER AND/OR OBSTRUCTIONS TO VISIBILITY.

* - THESE STATIONS ARE NOT NWS STATIONS...THUS NOT UNDER NWS
QUALITY CONTROL.  THEY ALSO DO NOT REPORT WEATHER SUCH
AS PRECIPITATION OR FOG.

IAZ001>003-012>014-020>022-031>034-043>046-250500-
   NORTHWEST IOWA

CITY           SKY/WX    TMP DP  RH WIND       PRES   REMARKS
CARROLL *        N/A     23  21  93 NW23      29.94R WCI   7
CHEROKEE *     MOCLDY    22  17  83 N16       29.98S WCI   8
DENISON *      CLOUDY    21  16  79 N16G22    29.96R WCI   7
LE MARS *      CLEAR     21  14  73 N14       30.03R WCI   8
SHELDON *      CLOUDY    19  18  93 N25G35    29.97R WCI   2
SIOUX CITY     CLEAR     24  15  68 N18       30.04R WCI  10
SPENCER        CLOUDY    20  14  77 NW24G32   29.95R WCI   3
STORM LAKE *   CLEAR     19  14  79 N23G31    29.95R WCI   2
$$

IAZ055>058-069>071-079>083-090>094-250500-
   SOUTHWEST IOWA

CITY           SKY/WX    TMP DP  RH WIND       PRES   REMARKS
ATLANTIC *     CLOUDY    23  16  74 N18       29.98R WCI   9
AUDUBON *      CLEAR     21  16  79 NW13G23   29.95R WCI   9
CLARINDA *     PTCLDY    25  18  74 NW13      30.03R WCI  13
COUNCIL BLFS * PTCLDY    21  18  86 NW10      30.01R WCI  10
CRESTON *      MIX PCPN  23  18  80 NW23      29.94R WCI   7
HARLAN  *      CLEAR     21  18  86 NW15      30.02R WCI   8
LAMONI         MOCLDY    24  17  74 NW18      29.91R WCI  10
RED OAK *      CLOUDY    23  18  80 NW12      30.01R WCI  12
SHENANDOAH *   PTCLDY    23  18  80 NW3       30.03R
$$

IAZ047>049-059>061-072>074-084-250500-
   CENTRAL IOWA

CITY           SKY/WX    TMP DP  RH WIND       PRES   REMARKS
AMES           CLOUDY    24  19  81 N23G30    29.88R WCI   9
ANKENY *       MIX PCPN  25  19  80 NW21G26   29.90R WCI  10
BOONE *        CLOUDY    23  16  74 NW20G31   29.88R WCI   8
CHARITON *     FLURRIES  23  19  86 NW16      29.88R WCI  10
DES MOINES     FLURRIES  25  18  74 NW18G28   29.90R WCI  11
GRINNELL*      LGT SNOW  24  22  92 NW15      29.84R WCI  11
KNOXVILLE *    FLURRIES  23  19  86 NW15G22   29.86R WCI  10
MARSHALLTOWN   MIX PCPN  23  19  85 NW20G26   29.83R WCI   8
NEWTON *       CLOUDY    23  19  86 NW16      29.85R WCI  10
PELLA *        LGT SNOW  24  21  89 NW20G28   29.87R WCI  10
PERRY *          N/A     23  18  82 NW14G21   29.92R WCI  10
$$

IAZ004>006-015-016-023>025-035-036-250500-
   NORTH CENTRAL IOWA

CITY           SKY/WX    TMP DP  RH WIND       PRES   REMARKS
ALGONA *       CLEAR     19  16  86 NW22G28   29.89R HAZE    WCI   3
CLARION *      CLEAR     18  14  86 NW12      29.88R WCI   5
ESTHERVILLE    CLOUDY    19  14  81 NW24      29.92R WCI   2
FORT DODGE *   CLEAR     19  10  68 NW9       29.91R WCI   9
MASON CITY     CLOUDY    19  16  88 N20       29.85R FOG     WCI   3
FOREST CITY *    N/A     19  14  79 N16G24    29.85S WCI   5
WEBSTER CITY * CLEAR     19  12  73 NW16      29.87R WCI   5
IOWA FALLS *   MOCLDY    23  18  80 NW13      29.85R WCI  11
$$

IAZ007>011-017>019-026>030-037>042-050>054-066-250500-
   NORTHEAST IOWA

CITY           SKY/WX    TMP DP  RH WIND       PRES   REMARKS
CEDAR RAPIDS   LGT SNOW  24  21  88 N22G31    29.76R FOG     WCI   9
CHARLES CITY * MIX PCPN  21  18  86 N15G25    29.81R WCI   8
CLINTON *      FLURRIES  29  27  92 NW13      29.69R WCI  19
DECORAH *      LGT SNOW  19  16  86 NW22G31   29.74S WCI   3
DUBUQUE        LGT SNOW  26  24  92 N13       29.68R FOG     WCI  15
MONTICELLO *   LGT SNOW  25  23  93 NW18      29.72R WCI  11
OELWEIN *      LGT SNOW  21  19  93 N21G29    29.77R WCI   6
WATERLOO       LGT SNOW  23  18  81 NW21      29.80R WCI   8
$$

IAZ064-065-067-068-078-250500-
   EAST CENTRAL IOWA

CITY           SKY/WX    TMP DP  RH WIND       PRES   REMARKS
DAVENPORT      LGT SNOW  30  27  88 NW13      29.70R FOG     WCI  20
IOWA CITY      LGT SNOW  27  23  85 NW16      29.78R FOG     WCI  15
MUSCATINE *    LGT SNOW  30  27  86 NW20      29.75R WCI  18
QUAD CITIES    LGT SNOW  33  28  81 NW9       29.70R WCI  25
$$

IAZ062-063-075>077-085>089-095>099-250500-
   SOUTHEAST IOWA

CITY           SKY/WX    TMP DP  RH WIND       PRES   REMARKS
BURLINGTON     LGT SNOW  30  28  92 NW15G24   29.74R FOG     WCI  19
FAIRFIELD *    CLOUDY    27  23  86 NW18G28   29.80R FOG     WCI  13
KEOKUK *       FLURRIES  28  27  93 W15G24    29.79R WCI  17
CENTERVILLE *  LGT RAIN  25  21  86 W20G26    29.88R WCI  11
OTTUMWA        LGT SNOW  25  22  88 NW20      29.83R FOG     WCI  11
WASHINGTON *   LGT SNOW  27  25  93 NW23G29   29.79R WCI  12
$$

ABBREVIATIONS USED IN REMARKS
   TC - TEMPERATURES IN CELSIUS
  WCI - WIND CHILL INDEX
   HX - HEAT INDEX
  VSB - VISIBILITY
$$




USA.gov is the U.S. government's official web portal to all federal, state and local government web resources and services.